| time (UTC) | temp F | wind direction | speed MPH | gust MPH | rain 1hr in | rain 24hr in | rain mn in | humidity % | barometer mb |
| 20260510063513 | 50 | 0 | 0.0 | 3.0 | 0.00 | 0.58 | 0.00 | 95 | 1011.9 |
| 20260510063030 | 50 | 0 | 1.0 | 3.0 | 0.00 | 0.58 | 0.00 | 95 | 1011.9 |
| 20260510062515 | 50 | 316 | 1.0 | 3.0 | 0.00 | 0.58 | 0.00 | 95 | 1011.9 |
| 20260510062015 | 50 | 0 | 0.0 | 2.0 | 0.00 | 0.58 | 0.00 | 95 | 1011.8 |
| 20260510061530 | 50 | 0 | 0.0 | 3.0 | 0.00 | 0.58 | 0.00 | 95 | 1011.7 |
| 20260510061016 | 50 | 0 | 1.0 | 3.0 | 0.00 | 0.58 | 0.00 | 95 | 1011.6 |
| 20260510060516 | 50 | 282 | 0.0 | 4.0 | 0.00 | 0.58 | 0.00 | 95 | 1011.6 |
| 20260510060038 | 50 | 221 | 1.0 | 4.0 | 0.00 | 0.58 | 0.00 | 95 | 1011.6 |
| 20260510055515 | 50 | 0 | 0.0 | 3.0 | 0.00 | 0.60 | 0.00 | 95 | 1011.6 |
| 20260510055016 | 50 | 265 | 1.0 | 3.0 | 0.00 | 0.60 | 0.00 | 95 | 1011.6 |
| 20260510054531 | 50 | 80 | 1.0 | 3.0 | 0.00 | 0.60 | 0.00 | 95 | 1011.6 |
| 20260510054017 | 50 | 142 | 0.0 | 2.0 | 0.00 | 0.60 | 0.00 | 95 | 1011.6 |
| 20260510053515 | 50 | 265 | 0.0 | 2.0 | 0.00 | 0.60 | 0.00 | 95 | 1011.7 |
| 20260510053030 | 50 | 93 | 0.0 | 2.0 | 0.00 | 0.60 | 0.00 | 95 | 1011.7 |
| 20260510052516 | 50 | 0 | 1.0 | 3.0 | 0.00 | 0.60 | 0.00 | 95 | 1011.7 |
| 20260510052019 | 50 | 0 | 1.0 | 3.0 | 0.00 | 0.60 | 0.00 | 95 | 1011.6 |
| 20260510051541 | 50 | 93 | 1.0 | 3.0 | 0.00 | 0.60 | 0.00 | 95 | 1011.6 |
| 20260510051016 | 50 | 0 | 0.0 | 2.0 | 0.00 | 0.60 | 0.00 | 95 | 1011.7 |
| 20260510050518 | 50 | 0 | 0.0 | 2.0 | 0.00 | 0.60 | 0.00 | 95 | 1012.0 |
| 20260510050035 | 50 | 243 | 0.0 | 2.0 | 0.00 | 0.60 | 0.00 | 95 | 1011.9 |
| 20260510045517 | 50 | 0 | 0.0 | 2.0 | 0.00 | 0.60 | 0.00 | 95 | 1011.8 |
| 20260510045018 | 50 | 0 | 0.0 | 2.0 | 0.00 | 0.60 | 0.00 | 95 | 1011.7 |
| 20260510044539 | 50 | 341 | 0.0 | 2.0 | 0.00 | 0.60 | 0.00 | 95 | 1011.7 |
| 20260510044015 | 50 | 0 | 0.0 | 2.0 | 0.00 | 0.60 | 0.00 | 95 | 1011.7 |
| 20260510043516 | 50 | 0 | 1.0 | 2.0 | 0.00 | 0.60 | 0.00 | 95 | 1011.7 |
| 20260510043044 | 50 | 321 | 0.0 | 2.0 | 0.00 | 0.60 | 0.00 | 95 | 1011.7 |
| 20260510042516 | 50 | 51 | 0.0 | 2.0 | 0.00 | 0.60 | 0.00 | 95 | 1011.6 |
| 20260510042015 | 50 | 282 | 1.0 | 2.0 | 0.00 | 0.60 | 0.00 | 95 | 1011.7 |
| 20260510041544 | 50 | 265 | 0.0 | 3.0 | 0.00 | 0.60 | 0.00 | 95 | 1011.8 |
| 20260510041017 | 50 | 325 | 1.0 | 3.0 | 0.00 | 0.60 | 0.00 | 95 | 1011.8 |
| 20260510040515 | 50 | 291 | 1.0 | 3.0 | 0.00 | 0.60 | 0.00 | 95 | 1011.7 |
| 20260510040035 | 50 | 0 | 0.0 | 2.0 | 0.00 | 0.60 | 0.00 | 95 | 1011.5 |
| 20260510035519 | 50 | 115 | 1.0 | 2.0 | 0.00 | 0.60 | 0.60 | 95 | 1011.4 |
| 20260510035019 | 51 | 26 | 0.0 | 2.0 | 0.00 | 0.60 | 0.60 | 95 | 1011.4 |
| 20260510034530 | 51 | 325 | 0.0 | 3.0 | 0.00 | 0.60 | 0.60 | 95 | 1011.4 |
| 20260510034017 | 51 | 41 | 1.0 | 3.0 | 0.00 | 0.60 | 0.60 | 95 | 1011.3 |
| 20260510033514 | 51 | 55 | 1.0 | 3.0 | 0.00 | 0.60 | 0.60 | 95 | 1011.3 |
| 20260510033035 | 51 | 57 | 1.0 | 3.0 | 0.00 | 0.60 | 0.60 | 95 | 1011.3 |
| 20260510032519 | 51 | 316 | 1.0 | 3.0 | 0.00 | 0.60 | 0.60 | 95 | 1011.3 |
| 20260510032016 | 51 | 59 | 1.0 | 3.0 | 0.00 | 0.60 | 0.60 | 95 | 1011.4 |
| 20260510031534 | 51 | 46 | 1.0 | 3.0 | 0.00 | 0.60 | 0.60 | 94 | 1011.4 |
| 20260510031017 | 51 | 0 | 0.0 | 3.0 | 0.00 | 0.60 | 0.60 | 94 | 1011.4 |
| 20260510030517 | 51 | 100 | 1.0 | 3.0 | 0.00 | 0.60 | 0.60 | 94 | 1011.3 |
| 20260510030035 | 51 | 51 | 1.0 | 2.0 | 0.00 | 0.60 | 0.60 | 95 | 1011.4 |
| 20260510025516 | 52 | 309 | 0.0 | 2.0 | 0.00 | 0.60 | 0.60 | 95 | 1011.5 |
| 20260510025017 | 52 | 9 | 1.0 | 2.0 | 0.00 | 0.60 | 0.60 | 95 | 1011.5 |
| 20260510024539 | 52 | 17 | 0.0 | 2.0 | 0.00 | 0.60 | 0.60 | 95 | 1011.6 |
| 20260510024020 | 52 | 0 | 0.0 | 2.0 | 0.00 | 0.60 | 0.60 | 94 | 1011.7 |
| 20260510023518 | 52 | 76 | 0.0 | 3.0 | 0.00 | 0.60 | 0.60 | 94 | 1011.6 |
| 20260510023031 | 52 | 51 | 0.0 | 3.0 | 0.00 | 0.60 | 0.60 | 94 | 1011.6 |
| 20260510022517 | 52 | 51 | 0.0 | 3.0 | 0.00 | 0.60 | 0.60 | 94 | 1011.7 |
| 20260510022016 | 52 | 0 | 0.0 | 3.0 | 0.00 | 0.60 | 0.60 | 94 | 1011.7 |
| 20260510021533 | 52 | 321 | 1.0 | 3.0 | 0.00 | 0.60 | 0.60 | 94 | 1011.7 |
| 20260510021015 | 52 | 0 | 0.0 | 3.0 | 0.00 | 0.60 | 0.60 | 94 | 1011.7 |
| 20260510020515 | 52 | 30 | 1.0 | 3.0 | 0.00 | 0.60 | 0.60 | 94 | 1011.6 |
| 20260510020035 | 52 | 22 | 1.0 | 3.0 | 0.00 | 0.60 | 0.60 | 94 | 1011.6 |
| 20260510015518 | 52 | 34 | 0.0 | 4.0 | 0.00 | 0.60 | 0.60 | 94 | 1011.6 |
| 20260510015017 | 52 | 0 | 1.0 | 4.0 | 0.00 | 0.60 | 0.60 | 94 | 1011.6 |
| 20260510014535 | 52 | 313 | 0.0 | 3.0 | 0.00 | 0.60 | 0.60 | 94 | 1011.5 |
| 20260510014017 | 52 | 229 | 0.0 | 4.0 | 0.00 | 0.60 | 0.60 | 94 | 1011.4 |
| 20260510013518 | 52 | 238 | 1.0 | 4.0 | 0.00 | 0.60 | 0.60 | 94 | 1011.4 |
| 20260510013034 | 52 | 162 | 0.0 | 3.0 | 0.00 | 0.60 | 0.60 | 94 | 1011.4 |
| 20260510012517 | 52 | 0 | 0.0 | 3.0 | 0.00 | 0.60 | 0.60 | 94 | 1011.2 |
| 20260510012017 | 53 | 205 | 1.0 | 3.0 | 0.00 | 0.60 | 0.60 | 94 | 1011.1 |
| 20260510011538 | 53 | 137 | 1.0 | 2.0 | 0.00 | 0.60 | 0.60 | 94 | 1011.2 |
| 20260510011018 | 53 | 196 | 1.0 | 2.0 | 0.00 | 0.60 | 0.60 | 94 | 1011.1 |
| 20260510010518 | 53 | 325 | 0.0 | 3.0 | 0.00 | 0.60 | 0.60 | 94 | 1011.0 |
| 20260510010046 | 52 | 93 | 0.0 | 3.0 | 0.00 | 0.60 | 0.60 | 94 | 1011.0 |
| 20260510005518 | 52 | 85 | 0.0 | 2.0 | 0.00 | 0.60 | 0.60 | 94 | 1011.0 |
| 20260510005020 | 52 | 0 | 0.0 | 3.0 | 0.00 | 0.60 | 0.60 | 94 | 1011.0 |
| 20260510004532 | 52 | 0 | 1.0 | 3.0 | 0.00 | 0.60 | 0.60 | 94 | 1011.0 |
| 20260510004020 | 52 | 76 | 0.0 | 3.0 | 0.00 | 0.60 | 0.60 | 94 | 1010.9 |
| 20260510003518 | 53 | 0 | 0.0 | 3.0 | 0.00 | 0.60 | 0.60 | 94 | 1011.0 |
| 20260510003036 | 52 | 298 | 1.0 | 3.0 | 0.00 | 0.60 | 0.60 | 94 | 1011.0 |
| 20260510002517 | 52 | 330 | 0.0 | 3.0 | 0.00 | 0.60 | 0.60 | 94 | 1010.9 |
| 20260510002016 | 52 | 72 | 0.0 | 3.0 | 0.00 | 0.60 | 0.60 | 94 | 1011.0 |
| 20260510001535 | 52 | 0 | 0.0 | 3.0 | 0.00 | 0.60 | 0.60 | 94 | 1011.0 |
| 20260510001016 | 53 | 131 | 1.0 | 3.0 | 0.00 | 0.60 | 0.60 | 94 | 1010.9 |
| 20260510000516 | 53 | 0 | 0.0 | 2.0 | 0.00 | 0.60 | 0.60 | 93 | 1010.8 |
| 20260510000038 | 53 | 108 | 0.0 | 2.0 | 0.00 | 0.60 | 0.60 | 93 | 1010.9 |
| 20260509235518 | 53 | 93 | 0.0 | 3.0 | 0.00 | 0.60 | 0.60 | 94 | 1010.9 |
| 20260509235018 | 53 | 119 | 1.0 | 3.0 | 0.00 | 0.60 | 0.60 | 93 | 1010.8 |
| 20260509234553 | 53 | 119 | 1.0 | 4.0 | 0.00 | 0.60 | 0.60 | 93 | 1010.8 |
| 20260509234016 | 54 | 80 | 0.0 | 4.0 | 0.01 | 0.60 | 0.60 | 93 | 1010.9 |
| 20260509233517 | 54 | 83 | 0.0 | 2.0 | 0.01 | 0.60 | 0.60 | 94 | 1010.8 |
| 20260509233036 | 54 | 157 | 0.0 | 3.0 | 0.01 | 0.60 | 0.60 | 94 | 1010.8 |
| 20260509232518 | 54 | 126 | 1.0 | 3.0 | 0.02 | 0.60 | 0.60 | 94 | 1010.9 |
| 20260509232016 | 54 | 83 | 1.0 | 3.0 | 0.05 | 0.60 | 0.60 | 93 | 1011.1 |
| 20260509231534 | 54 | 93 | 0.0 | 4.0 | 0.06 | 0.60 | 0.60 | 94 | 1011.2 |
| 20260509231015 | 54 | 0 | 0.0 | 4.0 | 0.07 | 0.60 | 0.60 | 93 | 1011.2 |
| 20260509230516 | 54 | 61 | 1.0 | 4.0 | 0.08 | 0.60 | 0.60 | 93 | 1011.2 |
| 20260509230032 | 54 | 265 | 1.0 | 7.0 | 0.09 | 0.60 | 0.60 | 93 | 1011.1 |
| 20260509225519 | 54 | 9 | 1.0 | 7.0 | 0.10 | 0.60 | 0.60 | 93 | 1011.0 |
| 20260509225016 | 54 | 140 | 2.0 | 7.0 | 0.12 | 0.60 | 0.60 | 93 | 1010.9 |
| 20260509224535 | 54 | 98 | 2.0 | 7.0 | 0.16 | 0.60 | 0.60 | 93 | 1011.1 |
| 20260509224018 | 54 | 76 | 2.0 | 7.0 | 0.16 | 0.58 | 0.58 | 93 | 1011.1 |
| 20260509223519 | 54 | 68 | 1.0 | 3.0 | 0.17 | 0.58 | 0.58 | 93 | 1011.2 |
| 20260509223034 | 54 | 9 | 1.0 | 4.0 | 0.17 | 0.58 | 0.58 | 93 | 1011.3 |
| 20260509222515 | 54 | 243 | 1.0 | 4.0 | 0.17 | 0.58 | 0.58 | 93 | 1011.3 |
| 20260509222017 | 53 | 128 | 1.0 | 4.0 | 0.14 | 0.55 | 0.55 | 93 | 1011.4 |
| 20260509221559 | 54 | 123 | 1.0 | 4.0 | 0.13 | 0.54 | 0.54 | 93 | 1011.4 |
| 20260509221018 | 54 | 0 | 1.0 | 4.0 | 0.12 | 0.52 | 0.52 | 93 | 1011.4 |
| 20260509220517 | 54 | 49 | 1.0 | 4.0 | 0.11 | 0.52 | 0.52 | 93 | 1011.5 |
| 20260509220034 | 54 | 45 | 1.0 | 3.0 | 0.10 | 0.51 | 0.51 | 93 | 1011.4 |
| 20260509215516 | 54 | 93 | 0.0 | 3.0 | 0.09 | 0.49 | 0.49 | 93 | 1011.7 |
| 20260509215016 | 54 | 119 | 0.0 | 4.0 | 0.08 | 0.48 | 0.48 | 93 | 1011.8 |
| 20260509214536 | 55 | 265 | 1.0 | 7.0 | 0.04 | 0.44 | 0.44 | 93 | 1011.8 |
| 20260509214018 | 55 | 344 | 1.0 | 7.0 | 0.04 | 0.43 | 0.43 | 93 | 1011.4 |
| 20260509213517 | 55 | 41 | 3.0 | 7.0 | 0.03 | 0.42 | 0.42 | 93 | 1011.1 |
| 20260509213032 | 55 | 325 | 1.0 | 3.0 | 0.03 | 0.42 | 0.42 | 93 | 1011.7 |
| 20260509212521 | 55 | 129 | 1.0 | 3.0 | 0.02 | 0.41 | 0.41 | 93 | 1011.8 |
| 20260509212016 | 55 | 0 | 0.0 | 3.0 | 0.03 | 0.41 | 0.41 | 93 | 1011.6 |
| 20260509211533 | 55 | 72 | 1.0 | 3.0 | 0.03 | 0.41 | 0.41 | 93 | 1011.5 |
| 20260509211015 | 55 | 51 | 1.0 | 3.0 | 0.03 | 0.41 | 0.41 | 93 | 1011.7 |
| 20260509210517 | 55 | 0 | 0.0 | 3.0 | 0.03 | 0.41 | 0.41 | 93 | 1011.8 |
| 20260509210034 | 55 | 0 | 1.0 | 2.0 | 0.03 | 0.41 | 0.41 | 92 | 1011.8 |
| 20260509205518 | 55 | 247 | 0.0 | 3.0 | 0.02 | 0.40 | 0.40 | 92 | 1011.9 |
| 20260509205015 | 55 | 59 | 1.0 | 3.0 | 0.02 | 0.40 | 0.40 | 92 | 1011.8 |
| 20260509204532 | 55 | 9 | 1.0 | 2.0 | 0.02 | 0.40 | 0.40 | 92 | 1011.9 |
| 20260509204016 | 55 | 0 | 0.0 | 2.0 | 0.02 | 0.39 | 0.39 | 92 | 1012.0 |
| 20260509203515 | 55 | 146 | 0.0 | 2.0 | 0.02 | 0.39 | 0.39 | 92 | 1012.0 |
| 20260509203036 | 55 | 146 | 0.0 | 2.0 | 0.02 | 0.39 | 0.39 | 92 | 1011.9 |
| 20260509202517 | 55 | 119 | 0.0 | 3.0 | 0.03 | 0.39 | 0.39 | 92 | 1011.8 |
| 20260509202015 | 55 | 162 | 1.0 | 3.0 | 0.02 | 0.38 | 0.38 | 92 | 1012.1 |
| 20260509201532 | 55 | 178 | 1.0 | 4.0 | 0.03 | 0.38 | 0.38 | 92 | 1012.1 |
| 20260509201021 | 55 | 162 | 0.0 | 4.0 | 0.03 | 0.38 | 0.38 | 92 | 1012.1 |
| 20260509200516 | 55 | 137 | 1.0 | 4.0 | 0.04 | 0.38 | 0.38 | 92 | 1012.0 |
| 20260509200037 | 55 | 142 | 1.0 | 4.0 | 0.05 | 0.38 | 0.38 | 92 | 1011.9 |
| 20260509195516 | 55 | 238 | 1.0 | 4.0 | 0.06 | 0.38 | 0.38 | 92 | 1011.7 |
| 20260509195015 | 55 | 312 | 1.0 | 6.0 | 0.06 | 0.38 | 0.38 | 92 | 1011.5 |
| 20260509194531 | 55 | 265 | 1.0 | 7.0 | 0.07 | 0.38 | 0.38 | 92 | 1011.3 |
| 20260509194015 | 56 | 0 | 2.0 | 7.0 | 0.07 | 0.37 | 0.37 | 92 | 1011.0 |
| 20260509193517 | 56 | 51 | 2.0 | 5.0 | 0.08 | 0.37 | 0.37 | 92 | 1011.2 |
| 20260509193032 | 55 | 0 | 1.0 | 4.0 | 0.14 | 0.37 | 0.37 | 91 | 1011.9 |
| 20260509192515 | 56 | 141 | 1.0 | 2.0 | 0.22 | 0.36 | 0.36 | 91 | 1011.9 |
| 20260509192025 | 56 | 0 | 0.0 | 2.0 | 0.24 | 0.35 | 0.35 | 91 | 1011.9 |
| 20260509191531 | 55 | 0 | 0.0 | 2.0 | 0.27 | 0.35 | 0.35 | 91 | 1011.9 |
| 20260509191013 | 55 | 316 | 1.0 | 2.0 | 0.33 | 0.35 | 0.35 | 91 | 1012.0 |
| 20260509190518 | 55 | 319 | 0.0 | 3.0 | 0.33 | 0.34 | 0.34 | 91 | 1012.1 |
| 20260509190042 | 55 | 309 | 1.0 | 3.0 | 0.32 | 0.33 | 0.33 | 90 | 1012.2 |
| 20260509185518 | 55 | 229 | 0.0 | 3.0 | 0.31 | 0.32 | 0.32 | 90 | 1012.2 |
| 20260509185016 | 55 | 319 | 1.0 | 6.0 | 0.30 | 0.31 | 0.31 | 89 | 1012.3 |
| 20260509184535 | 55 | 227 | 1.0 | 8.0 | 0.30 | 0.31 | 0.31 | 89 | 1012.5 |
| 20260509184014 | 56 | 242 | 3.0 | 8.0 | 0.29 | 0.30 | 0.30 | 89 | 1012.4 |
| 20260509183513 | 56 | 119 | 1.0 | 5.0 | 0.28 | 0.29 | 0.29 | 88 | 1012.5 |
| 20260509183038 | 57 | 298 | 1.0 | 5.0 | 0.20 | 0.21 | 0.21 | 86 | 1012.7 |
| 20260509182516 | 57 | 245 | 2.0 | 5.0 | 0.12 | 0.13 | 0.13 | 84 | 1012.5 |
| 20260509182016 | 58 | 167 | 2.0 | 5.0 | 0.10 | 0.11 | 0.11 | 81 | 1012.2 |
| 20260509181531 | 59 | 93 | 1.0 | 8.0 | 0.06 | 0.07 | 0.07 | 80 | 1012.1 |
| 20260509181019 | 59 | 257 | 3.0 | 9.0 | 0.01 | 0.02 | 0.02 | 77 | 1011.8 |
| 20260509180513 | 59 | 9 | 2.0 | 9.0 | 0.00 | 0.01 | 0.01 | 75 | 1011.4 |
| 20260509180031 | 60 | 0 | 2.0 | 9.0 | 0.00 | 0.01 | 0.01 | 74 | 1011.2 |
| 20260509175515 | 60 | 207 | 3.0 | 12.0 | 0.00 | 0.01 | 0.01 | 73 | 1011.6 |
| 20260509175018 | 61 | 129 | 2.0 | 12.0 | 0.00 | 0.01 | 0.01 | 71 | 1011.3 |
| 20260509174530 | 61 | 140 | 5.0 | 11.0 | 0.00 | 0.01 | 0.01 | 70 | 1011.6 |
| 20260509174016 | 62 | 291 | 4.0 | 10.0 | 0.00 | 0.01 | 0.01 | 69 | 1011.6 |
| 20260509173513 | 63 | 93 | 3.0 | 6.0 | 0.00 | 0.01 | 0.01 | 68 | 1011.4 |
| 20260509173040 | 63 | 221 | 1.0 | 10.0 | 0.00 | 0.01 | 0.01 | 67 | 1011.3 |
| 20260509172515 | 63 | 254 | 4.0 | 11.0 | 0.00 | 0.01 | 0.01 | 66 | 1011.4 |
| 20260509172016 | 63 | 210 | 3.0 | 11.0 | 0.00 | 0.01 | 0.01 | 65 | 1011.4 |
| 20260509171539 | 64 | 221 | 4.0 | 9.0 | 0.00 | 0.01 | 0.01 | 65 | 1011.6 |
| 20260509171015 | 63 | 178 | 1.0 | 7.0 | 0.00 | 0.01 | 0.01 | 67 | 1011.6 |
| 20260509170515 | 63 | 126 | 4.0 | 12.0 | 0.00 | 0.01 | 0.01 | 67 | 1011.7 |
| 20260509170039 | 63 | 165 | 5.0 | 12.0 | 0.00 | 0.01 | 0.01 | 65 | 1011.8 |
| 20260509165513 | 63 | 198 | 3.0 | 9.0 | 0.00 | 0.01 | 0.01 | 66 | 1011.8 |
| 20260509165016 | 64 | 250 | 4.0 | 9.0 | 0.00 | 0.01 | 0.01 | 66 | 1012.0 |
| 20260509164545 | 63 | 178 | 2.0 | 9.0 | 0.00 | 0.01 | 0.01 | 67 | 1011.8 |
| 20260509164019 | 63 | 175 | 2.0 | 9.0 | 0.00 | 0.01 | 0.01 | 67 | 1012.0 |
| 20260509163516 | 63 | 182 | 2.0 | 8.0 | 0.00 | 0.01 | 0.01 | 67 | 1012.2 |
| 20260509163042 | 62 | 140 | 2.0 | 9.0 | 0.00 | 0.01 | 0.01 | 70 | 1012.3 |
| 20260509162519 | 62 | 170 | 3.0 | 9.0 | 0.00 | 0.01 | 0.01 | 70 | 1012.4 |
| 20260509162019 | 62 | 157 | 2.0 | 9.0 | 0.00 | 0.01 | 0.01 | 73 | 1012.4 |
| 20260509161533 | 61 | 178 | 2.0 | 9.0 | 0.00 | 0.01 | 0.01 | 74 | 1012.4 |
| 20260509161015 | 60 | 177 | 3.0 | 8.0 | 0.00 | 0.01 | 0.01 | 73 | 1012.7 |
| 20260509160517 | 59 | 178 | 2.0 | 7.0 | 0.00 | 0.01 | 0.01 | 74 | 1012.8 |
| 20260509160035 | 59 | 232 | 3.0 | 7.0 | 0.00 | 0.01 | 0.01 | 75 | 1012.7 |
| 20260509155518 | 59 | 0 | 2.0 | 7.0 | 0.00 | 0.01 | 0.01 | 75 | 1012.6 |
| 20260509155019 | 59 | 148 | 2.0 | 8.0 | 0.00 | 0.01 | 0.01 | 77 | 1012.5 |
| 20260509154534 | 58 | 0 | 3.0 | 8.0 | 0.00 | 0.01 | 0.01 | 77 | 1012.7 |
| 20260509154017 | 58 | 168 | 3.0 | 8.0 | 0.00 | 0.01 | 0.01 | 79 | 1012.8 |
| 20260509153515 | 58 | 133 | 2.0 | 7.0 | 0.00 | 0.01 | 0.01 | 80 | 1012.9 |
| 20260509153038 | 57 | 0 | 0.0 | 3.0 | 0.00 | 0.01 | 0.01 | 81 | 1012.7 |
| 20260509152518 | 57 | 338 | 1.0 | 4.0 | 0.00 | 0.01 | 0.01 | 80 | 1012.8 |
| 20260509152018 | 57 | 250 | 1.0 | 5.0 | 0.00 | 0.01 | 0.01 | 80 | 1012.9 |
| 20260509151530 | 56 | 187 | 2.0 | 5.0 | 0.00 | 0.01 | 0.01 | 80 | 1013.0 |
| 20260509151016 | 56 | 193 | 2.0 | 5.0 | 0.00 | 0.01 | 0.01 | 80 | 1013.0 |
| 20260509150517 | 56 | 0 | 2.0 | 6.0 | 0.00 | 0.01 | 0.01 | 81 | 1013.1 |
| 20260509150035 | 56 | 214 | 1.0 | 9.0 | 0.00 | 0.01 | 0.01 | 81 | 1012.8 |
| 20260509145518 | 56 | 265 | 3.0 | 9.0 | 0.00 | 0.01 | 0.01 | 81 | 1012.8 |
| 20260509145017 | 56 | 229 | 1.0 | 7.0 | 0.00 | 0.01 | 0.01 | 82 | 1013.0 |
| 20260509144544 | 56 | 298 | 1.0 | 7.0 | 0.00 | 0.01 | 0.01 | 81 | 1012.9 |
| 20260509144017 | 56 | 215 | 3.0 | 7.0 | 0.00 | 0.01 | 0.01 | 81 | 1013.0 |
| 20260509143516 | 56 | 178 | 2.0 | 7.0 | 0.00 | 0.01 | 0.01 | 83 | 1012.9 |
| 20260509143034 | 56 | 215 | 2.0 | 7.0 | 0.00 | 0.01 | 0.01 | 83 | 1012.9 |
| 20260509142517 | 56 | 200 | 2.0 | 7.0 | 0.00 | 0.01 | 0.01 | 83 | 1012.8 |
| 20260509142021 | 56 | 215 | 1.0 | 6.0 | 0.00 | 0.01 | 0.01 | 84 | 1012.7 |
| 20260509141539 | 56 | 113 | 2.0 | 8.0 | 0.00 | 0.01 | 0.01 | 84 | 1012.8 |
| 20260509141017 | 55 | 144 | 2.0 | 8.0 | 0.00 | 0.01 | 0.01 | 84 | 1013.0 |
| 20260509140514 | 55 | 218 | 3.0 | 8.0 | 0.00 | 0.01 | 0.01 | 85 | 1012.9 |
| 20260509140038 | 56 | 241 | 4.0 | 8.0 | 0.00 | 0.01 | 0.01 | 86 | 1013.0 |
| 20260509135517 | 55 | 189 | 1.0 | 7.0 | 0.00 | 0.01 | 0.01 | 89 | 1012.8 |
| 20260509135034 | 54 | 68 | 2.0 | 7.0 | 0.00 | 0.01 | 0.01 | 89 | 1012.8 |
| 20260509134549 | 54 | 212 | 1.0 | 6.0 | 0.00 | 0.01 | 0.01 | 90 | 1012.9 |
| 20260509134017 | 53 | 168 | 1.0 | 6.0 | 0.00 | 0.01 | 0.01 | 92 | 1012.7 |
| 20260509133517 | 53 | 98 | 3.0 | 6.0 | 0.00 | 0.01 | 0.01 | 92 | 1012.7 |
| 20260509133036 | 52 | 225 | 1.0 | 7.0 | 0.00 | 0.01 | 0.01 | 92 | 1012.7 |
| 20260509132517 | 52 | 102 | 2.0 | 7.0 | 0.00 | 0.01 | 0.01 | 92 | 1013.0 |
| 20260509132017 | 52 | 227 | 2.0 | 6.0 | 0.00 | 0.01 | 0.01 | 92 | 1013.2 |
| 20260509131552 | 52 | 207 | 1.0 | 6.0 | 0.00 | 0.01 | 0.01 | 93 | 1013.0 |
| 20260509131016 | 51 | 98 | 1.0 | 6.0 | 0.00 | 0.01 | 0.01 | 93 | 1012.8 |
| 20260509130518 | 51 | 117 | 2.0 | 6.0 | 0.00 | 0.01 | 0.01 | 93 | 1012.9 |
| 20260509130047 | 51 | 83 | 1.0 | 5.0 | 0.00 | 0.01 | 0.01 | 93 | 1012.9 |
| 20260509125515 | 51 | 20 | 2.0 | 10.0 | 0.00 | 0.01 | 0.01 | 93 | 1013.0 |
| 20260509125019 | 50 | 137 | 2.0 | 10.0 | 0.00 | 0.01 | 0.01 | 93 | 1013.5 |
| 20260509124540 | 50 | 77 | 4.0 | 10.0 | 0.00 | 0.01 | 0.01 | 93 | 1012.7 |
| 20260509124017 | 50 | 0 | 2.0 | 7.0 | 0.00 | 0.01 | 0.01 | 92 | 1012.9 |
| 20260509123517 | 50 | 70 | 2.0 | 5.0 | 0.00 | 0.01 | 0.01 | 93 | 1013.1 |
| 20260509123033 | 50 | 108 | 1.0 | 4.0 | 0.00 | 0.01 | 0.01 | 92 | 1013.1 |
| 20260509122517 | 50 | 79 | 1.0 | 7.0 | 0.00 | 0.01 | 0.01 | 92 | 1013.3 |
| 20260509122017 | 50 | 113 | 2.0 | 9.0 | 0.00 | 0.01 | 0.01 | 92 | 1013.4 |
| 20260509121534 | 50 | 93 | 3.0 | 9.0 | 0.00 | 0.01 | 0.01 | 92 | 1013.1 |
| 20260509121017 | 50 | 82 | 2.0 | 6.0 | 0.00 | 0.01 | 0.01 | 92 | 1013.1 |
| 20260509120521 | 50 | 98 | 2.0 | 6.0 | 0.00 | 0.01 | 0.01 | 92 | 1013.2 |
| 20260509120035 | 50 | 87 | 2.0 | 5.0 | 0.00 | 0.01 | 0.01 | 92 | 1013.3 |
| 20260509115517 | 50 | 126 | 1.0 | 5.0 | 0.00 | 0.01 | 0.01 | 92 | 1013.2 |
| 20260509115018 | 50 | 74 | 1.0 | 6.0 | 0.00 | 0.01 | 0.01 | 92 | 1013.3 |
| 20260509114534 | 49 | 9 | 1.0 | 6.0 | 0.00 | 0.01 | 0.01 | 92 | 1013.4 |
| 20260509114017 | 49 | 45 | 0.0 | 6.0 | 0.00 | 0.01 | 0.01 | 92 | 1013.4 |
| 20260509113515 | 49 | 67 | 2.0 | 6.0 | 0.00 | 0.01 | 0.01 | 92 | 1013.3 |
| 20260509113031 | 49 | 9 | 1.0 | 6.0 | 0.00 | 0.01 | 0.01 | 92 | 1013.3 |
| 20260509112517 | 49 | 92 | 1.0 | 5.0 | 0.00 | 0.01 | 0.01 | 92 | 1013.2 |
| 20260509112017 | 49 | 59 | 1.0 | 5.0 | 0.00 | 0.01 | 0.01 | 92 | 1013.1 |
| 20260509111532 | 49 | 51 | 1.0 | 6.0 | 0.00 | 0.01 | 0.01 | 91 | 1013.2 |
| 20260509111017 | 49 | 137 | 1.0 | 6.0 | 0.00 | 0.01 | 0.01 | 91 | 1013.2 |
| 20260509110516 | 49 | 93 | 2.0 | 8.0 | 0.00 | 0.01 | 0.01 | 91 | 1012.9 |
| 20260509110032 | 49 | 51 | 2.0 | 8.0 | 0.00 | 0.01 | 0.01 | 91 | 1012.9 |
| 20260509105517 | 49 | 93 | 1.0 | 6.0 | 0.00 | 0.01 | 0.01 | 91 | 1013.0 |
| 20260509105019 | 49 | 0 | 1.0 | 3.0 | 0.00 | 0.01 | 0.01 | 91 | 1013.0 |
| 20260509104544 | 49 | 0 | 1.0 | 3.0 | 0.00 | 0.01 | 0.01 | 91 | 1012.9 |
| 20260509104017 | 49 | 0 | 0.0 | 3.0 | 0.00 | 0.01 | 0.01 | 91 | 1012.9 |
| 20260509103516 | 49 | 0 | 0.0 | 3.0 | 0.00 | 0.01 | 0.01 | 91 | 1012.8 |
| 20260509103035 | 49 | 280 | 0.0 | 3.0 | 0.00 | 0.01 | 0.01 | 91 | 1012.7 |
| 20260509102515 | 48 | 34 | 1.0 | 3.0 | 0.00 | 0.01 | 0.01 | 91 | 1012.5 |
| 20260509102015 | 48 | 0 | 1.0 | 3.0 | 0.00 | 0.01 | 0.01 | 91 | 1012.5 |
| 20260509101534 | 48 | 265 | 1.0 | 3.0 | 0.00 | 0.01 | 0.01 | 91 | 1012.4 |
| 20260509101015 | 48 | 61 | 1.0 | 3.0 | 0.00 | 0.01 | 0.01 | 91 | 1012.4 |
| 20260509100517 | 48 | 329 | 0.0 | 2.0 | 0.00 | 0.01 | 0.01 | 91 | 1012.5 |
| 20260509100036 | 48 | 330 | 1.0 | 2.0 | 0.00 | 0.01 | 0.01 | 91 | 1012.4 |
| 20260509095515 | 48 | 319 | 0.0 | 3.0 | 0.00 | 0.01 | 0.01 | 91 | 1012.6 |
| 20260509095016 | 48 | 153 | 0.0 | 4.0 | 0.00 | 0.01 | 0.01 | 91 | 1012.7 |
| 20260509094533 | 48 | 330 | 1.0 | 4.0 | 0.00 | 0.01 | 0.01 | 91 | 1012.7 |
| 20260509094015 | 48 | 19 | 2.0 | 4.0 | 0.00 | 0.01 | 0.01 | 92 | 1012.7 |
| 20260509093515 | 48 | 93 | 1.0 | 4.0 | 0.00 | 0.01 | 0.01 | 92 | 1012.6 |
| 20260509093032 | 48 | 26 | 1.0 | 4.0 | 0.00 | 0.01 | 0.01 | 92 | 1012.6 |
| 20260509092517 | 48 | 0 | 1.0 | 4.0 | 0.00 | 0.01 | 0.01 | 92 | 1012.5 |
| 20260509092016 | 48 | 30 | 1.0 | 3.0 | 0.00 | 0.01 | 0.01 | 92 | 1012.6 |
| 20260509091535 | 48 | 9 | 1.0 | 3.0 | 0.00 | 0.01 | 0.01 | 92 | 1012.8 |
| 20260509091016 | 48 | 34 | 1.0 | 2.0 | 0.00 | 0.01 | 0.01 | 92 | 1012.7 |
| 20260509090515 | 48 | 338 | 0.0 | 2.0 | 0.00 | 0.01 | 0.01 | 92 | 1012.8 |
| 20260509090039 | 48 | 80 | 1.0 | 2.0 | 0.00 | 0.01 | 0.01 | 92 | 1012.7 |
| 20260509085517 | 48 | 57 | 1.0 | 3.0 | 0.00 | 0.01 | 0.01 | 92 | 1012.8 |
| 20260509085016 | 48 | 22 | 1.0 | 3.0 | 0.00 | 0.01 | 0.01 | 92 | 1012.7 |
| 20260509084537 | 48 | 0 | 1.0 | 4.0 | 0.00 | 0.01 | 0.01 | 92 | 1012.8 |
| 20260509084016 | 47 | 67 | 1.0 | 4.0 | 0.00 | 0.01 | 0.01 | 93 | 1012.8 |
| 20260509083521 | 47 | 19 | 1.0 | 2.0 | 0.00 | 0.01 | 0.01 | 93 | 1012.8 |
| 20260509083044 | 48 | 9 | 0.0 | 2.0 | 0.00 | 0.01 | 0.01 | 93 | 1012.8 |
| 20260509082515 | 48 | 126 | 0.0 | 2.0 | 0.00 | 0.01 | 0.01 | 93 | 1012.9 |
| 20260509082015 | 48 | 0 | 0.0 | 2.0 | 0.00 | 0.01 | 0.01 | 93 | 1013.0 |
| 20260509081542 | 48 | 19 | 1.0 | 2.0 | 0.00 | 0.01 | 0.01 | 93 | 1013.0 |
| 20260509081021 | 47 | 341 | 1.0 | 2.0 | 0.00 | 0.01 | 0.01 | 93 | 1013.0 |
| 20260509080515 | 47 | 9 | 0.0 | 2.0 | 0.00 | 0.01 | 0.01 | 93 | 1013.1 |
| 20260509080036 | 47 | 0 | 1.0 | 2.0 | 0.00 | 0.01 | 0.01 | 93 | 1013.0 |
| 20260509075520 | 47 | 51 | 0.0 | 2.0 | 0.00 | 0.01 | 0.01 | 92 | 1013.0 |
| 20260509075017 | 47 | 0 | 0.0 | 2.0 | 0.00 | 0.01 | 0.01 | 92 | 1013.0 |
| 20260509074535 | 47 | 119 | 0.0 | 2.0 | 0.00 | 0.01 | 0.01 | 92 | 1013.0 |
| 20260509074015 | 47 | 34 | 0.0 | 2.0 | 0.00 | 0.01 | 0.01 | 92 | 1013.0 |
| 20260509073516 | 47 | 26 | 0.0 | 2.0 | 0.00 | 0.01 | 0.01 | 92 | 1013.0 |
| 20260509073032 | 47 | 41 | 1.0 | 2.0 | 0.00 | 0.01 | 0.01 | 92 | 1013.0 |
| 20260509072525 | 47 | 76 | 1.0 | 2.0 | 0.00 | 0.01 | 0.01 | 92 | 1012.7 |
| 20260509072020 | 47 | 0 | 1.0 | 2.0 | 0.00 | 0.01 | 0.01 | 92 | 1012.8 |
| 20260509071532 | 47 | 30 | 0.0 | 3.0 | 0.00 | 0.01 | 0.01 | 92 | 1012.7 |
| 20260509071015 | 47 | 334 | 1.0 | 3.0 | 0.00 | 0.01 | 0.01 | 92 | 1012.7 |
| 20260509070517 | 47 | 44 | 1.0 | 2.0 | 0.00 | 0.01 | 0.01 | 92 | 1012.8 |
| 20260509070035 | 47 | 9 | 0.0 | 2.0 | 0.00 | 0.01 | 0.01 | 92 | 1013.0 |
| 20260509065516 | 47 | 316 | 1.0 | 2.0 | 0.01 | 0.03 | 0.01 | 91 | 1013.1 |
| 20260509065019 | 47 | 0 | 1.0 | 2.0 | 0.01 | 0.03 | 0.01 | 91 | 1013.0 |
| 20260509064536 | 47 | 67 | 0.0 | 2.0 | 0.01 | 0.03 | 0.01 | 91 | 1013.0 |
| 20260509064017 | 47 | 338 | 1.0 | 2.0 | 0.01 | 0.03 | 0.01 | 91 | 1013.0 |